EUTELSAT 174A

Last updated on Tue Sep 16 2025 00:02:46 GMT+0000 (Coordinated Universal Time)

1 28924U 05052A 25258.58656858 -.00000007 00000+0 00000+0 0 9996 2 28924 3.5189 79.9277 0006146 99.6250 200.4022 1.00272835 49575
UTC large
Height (km)
Speed (km/s)
/
Latitude / Longitude
Inclination (degrees)
Orbital Period (minutes)
Azimuth
Elevation
Range (km)
Doppler Factor

Next 0 passes for location: London (51.5072 / 0.1276)

Sorry there are no passes over London.